TimeEDT,TemperatureF,Dew PointF,Humidity,Sea Level PressureIn,VisibilityMPH,Wind Direction,Wind SpeedMPH,Gust SpeedMPH,PrecipitationIn,Events,Conditions,WindDirDegrees,DateUTC
12:54 AM,68.0,57.0,68,30.02,10.0,Calm,Calm,-,N/A,,Scattered Clouds,0,2013-06-16 04:54:00
1:54 AM,66.9,57.0,70,30.01,10.0,SSW,3.5,-,N/A,,Scattered Clouds,200,2013-06-16 05:54:00
2:54 AM,66.0,55.9,70,30.01,10.0,SW,3.5,-,N/A,,Mostly Cloudy,230,2013-06-16 06:54:00
3:54 AM,66.0,55.0,68,30.02,10.0,WSW,6.9,-,N/A,,Mostly Cloudy,240,2013-06-16 07:54:00
4:54 AM,66.0,55.9,70,30.01,10.0,WSW,5.8,-,N/A,,Overcast,240,2013-06-16 08:54:00
5:54 AM,64.9,57.0,75,30.00,10.0,WSW,4.6,-,N/A,,Mostly Cloudy,240,2013-06-16 09:54:00
6:54 AM,66.9,57.0,70,30.00,10.0,SW,3.5,-,N/A,,Mostly Cloudy,230,2013-06-16 10:54:00
7:54 AM,68.0,55.9,65,29.99,10.0,SW,4.6,-,N/A,,Overcast,220,2013-06-16 11:54:00
8:54 AM,69.1,55.9,63,29.98,10.0,Calm,Calm,-,N/A,,Overcast,0,2013-06-16 12:54:00
9:54 AM,72.0,61.0,68,29.96,10.0,Calm,Calm,-,N/A,,Mostly Cloudy,0,2013-06-16 13:54:00
10:54 AM,78.1,59.0,52,29.94,10.0,SW,4.6,-,N/A,,Mostly Cloudy,220,2013-06-16 14:54:00
11:54 AM,81.0,62.1,52,29.91,10.0,SSW,10.4,-,N/A,,Mostly Cloudy,210,2013-06-16 15:54:00
12:54 PM,81.0,63.0,54,29.86,10.0,South,11.5,-,N/A,,Mostly Cloudy,190,2013-06-16 16:54:00
1:54 PM,82.9,61.0,47,29.86,10.0,SW,16.1,-,N/A,,Mostly Cloudy,230,2013-06-16 17:54:00
2:54 PM,82.9,59.0,44,29.85,10.0,SW,18.4,-,N/A,,Mostly Cloudy,230,2013-06-16 18:54:00
3:54 PM,82.9,61.0,47,29.84,10.0,SW,15.0,-,N/A,,Mostly Cloudy,230,2013-06-16 19:54:00
4:54 PM,82.0,63.0,52,29.85,10.0,WSW,16.1,-,N/A,,Overcast,240,2013-06-16 20:54:00
5:54 PM,81.0,64.0,56,29.85,10.0,WSW,10.4,-,N/A,,Overcast,250,2013-06-16 21:54:00
6:54 PM,77.0,64.9,66,29.87,10.0,WSW,17.3,-,0.00,,Mostly Cloudy,250,2013-06-16 22:54:00
7:54 PM,75.0,64.9,71,29.88,10.0,SW,11.5,-,N/A,,Mostly Cloudy,230,2013-06-16 23:54:00
8:54 PM,73.0,66.0,79,29.88,10.0,SW,9.2,-,N/A,,Mostly Cloudy,230,2013-06-17 00:54:00
9:54 PM,72.0,64.9,78,29.89,10.0,WSW,10.4,-,N/A,,Mostly Cloudy,240,2013-06-17 01:54:00
10:54 PM,71.1,66.0,84,29.89,10.0,SW,6.9,-,N/A,,Scattered Clouds,220,2013-06-17 02:54:00
11:54 PM,71.1,64.9,81,29.89,10.0,WSW,10.4,-,N/A,,Partly Cloudy,240,2013-06-17 03:54:00